Location: Dunedin
(45.8670°S, 170.5000°E)
Time: 03:09:25
(UTC+13:00)

ISS - Pass Details

Date: 31 January 2019
Orbit: 403 x 411 km, 51.6° (Epoch: 16 February)

Event Time Altitude Azimuth Distance (km) Brightness Sun altitude
Exits shadow 04:37:20 13° 27° (NNE) 1,295 -1.5 -16.2°
Maximum altitude 04:38:16 15° 46° (NE) 1,234 -1.4 -16.1°
Drops below altitude 10° 04:40:14 10° 82° (E) 1,494 -0.5 -15.9°
Sets 04:42:59 0° 106° (ESE) 2,363 1.1 -15.6°
